sat.trackr.live / text

‹ back to catalog

STARLINK-36535

NORAD 67986 · 2026-039A

PAYLOAD ACTIVE UNKNOWN

§ Identity

Operator
Country
US
Launch date
2026-02-27
Launch site
AFETR
Launch vehicle
Mass (kg)
RCS (m²)

Purposes: comms

External: N2YO · Heavens-Above · Gunter

§ Orbital elements

Epoch: 2026-09-19T15:45:15.335136Z

Period
94.27 min
Inclination
43.0019°
Eccentricity
0.0000538
Mean motion
15.27579982 rev/d
Perigee alt
482.7 km
Apogee alt
483.4 km
Semi-major
6,861.2 km
B*
5.1908e-4
RAAN
33.8987°
Arg perigee
240.2384°
Mean anomaly
119.8415°
Rev number
3,136

§ Raw data

STARLINK-365351 67986U 26039A   26262.65642749  .00014049  00000+0  51908-3 0  99902 67986  43.0019  33.8987 0000538 240.2384 119.8415 15.27579982 31369

JSON: /api/v1/satellites/67986 · /tle

For live sub-satellite position, see the globe view (requires WebGL).

§ Visibility from observer

Set your observer location to see the next 7 days of passes ≥ 10°. The values pass through the URL so the page stays shareable.

No JS? Fill the form by hand. The geolocation button needs JavaScript.